Погода в Казаре

Россия / Орловская область     52°54′01″N   36°52′27″E
темп.,
°C
ветер,
м/с
пор.,
м/с
влажн.,
%
обл.,
%
осадки,
мм/ч
давл.,
гПа
погр.,
м
17 мая, пн
пн1700:00+14всв367712 0.0 101271
03:00+13всв4118619 0.1 1011192
06:00+15в5119654 0.9 1010253
09:00+20вюв6107553 0.9 1009413
12:00+24вюв7125892 0.0 1008982
15:00+25вюв8135696 0.0 10071819
18:00+23вюв714662 0.0 1006675
21:00+20вюв6167517 0.0 1006446
18 мая, вт
вт1800:00+17юв512825 0.0 1006246
03:00+15вюв38905 0.0 1006144
06:00+15вюв3790100 0.0 1006169
09:00+20юв6107261 0.0 1006456
12:00+23юв7961100 0.0 1005990
15:00+22юв5965100 0.0 10051034
18:00+20ююв61173100 0.1 1005715
21:00+16ююв51288100 0.4 1006418
19 мая, ср
ср1900:00+15юв4109089 0.2 1006327
03:00+14юв4896100 0.8 1006237
06:00+14вюв4896100 0.1 1006292
09:00+15вюв6109168 2.1 1006460
12:00+20юв4567100 0.4 10051319
15:00+18ю367689 1.2 1006432
18:00+19юв3674100 0.6 1005658
21:00+15ююв3492100 1.9 100674
20 мая, чт
чт2000:00+14ю3698100 0.2 1006223
03:00+12юв3798100 0.2 1006205
06:00+12ююв51097100 1.6 1005584
09:00+14ююв6108468 2.1 1005850
12:00+17ююз677399 2.0 10061270
15:00+16юз5773100 2.9 1007683
18:00+15юз7108539 0.6 1007760
21:00+12юз61093100 0.8 1008563
21 мая, пт
пт2100:00+11юз61090100 0.1 1010761
03:00+7юз61293100 0.3 1012486
06:00+8юз61290100 0.0 1013518
09:00+11юз7118161 0.0 1015800
12:00+15зюз796673 0.0 10161348
15:00+17з456094 0.0 10171464
18:00+16с1168100 0.0 1017635
21:00+13св3681100 0.1 1018127